Location: Czekanka
(50.4925°N, 19.2643°E)
Time: 08:25:16
(UTC+00:00)

Cosmos 2263 Rocket - Pass Details

Date: 25 September 2024
Orbit: 821 x 849 km, 71.0° (Epoch: 12 October)

Event Time Altitude Azimuth Distance (km) Brightness Sun altitude
Exits shadow 02:41:52 - 188° (S) 2,683 4.5 -18.3°
Reaches altitude 10° 02:42:30 10° 186° (S) 2,443 4.3 -18.2°
Maximum altitude 02:47:56 53° 111° (ESE) 1,031 2.9 -17.4°
Drops below altitude 10° 02:53:26 10° 37° (NE) 2,477 5.5 -16.6°
Sets 02:55:57 0° 33° (NNE) 3,419 6.2 -16.2°
